• In Czech Republic
  • List of Countries
  • For 7 days
  • Water Temperature
  • Satellite Maps
  • Weather Map
  • Weather Widgets
  • user-avatar
    Login

    Hourly Weather North-Horr

    Today, 21 June, Thursday

    Time Temperature Precipitation Wind Pressure Humidity
    00:00 +33°C° 0 mm 6 mps 727 mmHg 36%
    01:00 +33°C° 0 mm 7 mps 727 mmHg 38%
    02:00 +32°C° 0 mm 8 mps 727 mmHg 40%
    03:00 +31°C° 0 mm 8 mps 727 mmHg 45%
    04:00 +29°C° 0 mm 8 mps 727 mmHg 50%
    05:00 +29°C° 0 mm 8 mps 728 mmHg 55%
    06:00 +29°C° 0 mm 8 mps 728 mmHg 54%
    07:00 +31°C° 0 mm 8 mps 728 mmHg 52%
    08:00 +32°C° 0 mm 8 mps 729 mmHg 49%
    09:00 +33°C° 0 mm 8 mps 729 mmHg 45%
    10:00 +34°C° 0 mm 8 mps 728 mmHg 40%
    11:00 +35°C° 0 mm 8 mps 728 mmHg 36%
    12:00 +36°C° 0 mm 7 mps 728 mmHg 34%
    13:00 +38°C° 0 mm 7 mps 727 mmHg 31%
    14:00 +38°C° 0 mm 7 mps 727 mmHg 30%
    15:00 +38°C° 0 mm 7 mps 726 mmHg 30%
    16:00 +38°C° 0 mm 7 mps 726 mmHg 30%
    17:00 +36°C° 0 mm 7 mps 726 mmHg 30%
    18:00 +37°C° 0 mm 8 mps 726 mmHg 32%
    19:00 +35°C° 0 mm 8 mps 726 mmHg 34%
    20:00 +34°C° 0 mm 8 mps 727 mmHg 36%
    21:00 +34°C° 0 mm 8 mps 727 mmHg 37%
    22:00 +33°C° 0 mm 7 mps 727 mmHg 39%
    23:00 +33°C° 0 mm 7 mps 727 mmHg 40%

    Tomorrow, 22 June, Friday

    Time Temperature Precipitation Wind Pressure Humidity
    00:00 +32°C° 0 mm 7 mps 727 mmHg 42%
    01:00 +32°C° 0 mm 7 mps 727 mmHg 45%
    02:00 +30°C° 0 mm 7 mps 727 mmHg 47%
    03:00 +30°C° 0 mm 7 mps 727 mmHg 50%
    04:00 +29°C° 0 mm 6 mps 727 mmHg 53%
    05:00 +29°C° 0 mm 6 mps 727 mmHg 56%
    06:00 +29°C° 0 mm 7 mps 727 mmHg 54%
    07:00 +30°C° 0 mm 7 mps 728 mmHg 52%
    08:00 +30°C° 0 mm 7 mps 728 mmHg 50%
    09:00 +33°C° 0 mm 7 mps 728 mmHg 45%
    10:00 +34°C° 0 mm 6 mps 728 mmHg 39%
    11:00 +36°C° 0 mm 6 mps 728 mmHg 34%
    12:00 +38°C° 0 mm 6 mps 727 mmHg 30%
    13:00 +39°C° 0 mm 6 mps 726 mmHg 27%
    14:00 +40°C° 0 mm 6 mps 725 mmHg 23%
    15:00 +39°C° 0 mm 7 mps 725 mmHg 22%
    16:00 +39°C° 0 mm 7 mps 724 mmHg 22%
    17:00 +39°C° 0 mm 7 mps 724 mmHg 22%
    18:00 +38°C° 0 mm 7 mps 724 mmHg 24%
    19:00 +36°C° 0 mm 7 mps 725 mmHg 27%
    20:00 +36°C° 0 mm 7 mps 725 mmHg 30%
    21:00 +35°C° 0 mm 8 mps 725 mmHg 33%
    22:00 +34°C° 0 mm 9 mps 726 mmHg 35%
    23:00 +33°C° 0 mm 9 mps 726 mmHg 38%

    Day after tomorrow, 23 June, Saturday

    Time Temperature Precipitation Wind Pressure Humidity
    00:00 +33°C° 0 mm 9 mps 726 mmHg 42%
    01:00 +32°C° 0 mm 9 mps 725 mmHg 46%
    02:00 +31°C° 0 mm 9 mps 725 mmHg 49%
    03:00 +29°C° 0 mm 9 mps 725 mmHg 52%
    04:00 +29°C° 0 mm 9 mps 726 mmHg 55%
    05:00 +28°C° 0 mm 8 mps 726 mmHg 58%
    06:00 +29°C° 0 mm 8 mps 727 mmHg 55%
    07:00 +29°C° 0 mm 9 mps 727 mmHg 53%
    08:00 +31°C° 0 mm 9 mps 728 mmHg 51%
    09:00 +32°C° 0 mm 8 mps 728 mmHg 45%
    10:00 +34°C° 0 mm 7 mps 728 mmHg 40%
    11:00 +35°C° 0 mm 6 mps 728 mmHg 35%
    12:00 +36°C° 0 mm 6 mps 727 mmHg 32%
    13:00 +37°C° 0 mm 5 mps 726 mmHg 30%
    14:00 +37°C° 0 mm 5 mps 725 mmHg 28%
    15:00 +37°C° 0 mm 5 mps 724 mmHg 27%
    16:00 +37°C° 0 mm 5 mps 724 mmHg 27%
    17:00 +37°C° 0 mm 5 mps 723 mmHg 26%
    18:00 +37°C° 0 mm 5 mps 724 mmHg 27%
    19:00 +36°C° 0 mm 5 mps 725 mmHg 28%
    20:00 +35°C° 0 mm 6 mps 725 mmHg 30%
    21:00 +35°C° 0 mm 7 mps 725 mmHg 32%
    22:00 +34°C° 0 mm 7 mps 726 mmHg 35%
    23:00 +33°C° 0 mm 8 mps 726 mmHg 38%

    24 June, Sunday

    Time Temperature Precipitation Wind Pressure Humidity
    00:00 +32°C° 0 mm 9 mps 725 mmHg 41%
    01:00 +31°C° 0 mm 9 mps 725 mmHg 45%
    02:00 +31°C° 0 mm 9 mps 725 mmHg 49%
    03:00 +29°C° 0 mm 9 mps 725 mmHg 51%
    04:00 +29°C° 0 mm 8 mps 725 mmHg 53%
    05:00 +28°C° 0 mm 8 mps 726 mmHg 55%
    06:00 +29°C° 0 mm 8 mps 726 mmHg 54%
    07:00 +29°C° 0 mm 8 mps 727 mmHg 52%
    08:00 +31°C° 0 mm 8 mps 727 mmHg 51%
    09:00 +32°C° 0 mm 7 mps 727 mmHg 47%
    10:00 +33°C° 0 mm 7 mps 727 mmHg 42%
    11:00 +35°C° 0 mm 6 mps 727 mmHg 38%
    12:00 +35°C° 0 mm 5 mps 726 mmHg 36%
    13:00 +36°C° 0 mm 5 mps 725 mmHg 34%
    14:00 +37°C° 0 mm 4 mps 724 mmHg 32%
    15:00 +37°C° 0 mm 4 mps 724 mmHg 31%
    16:00 +37°C° 0 mm 4 mps 724 mmHg 31%
    17:00 +37°C° 0 mm 5 mps 724 mmHg 31%
    18:00 +36°C° 0 mm 5 mps 724 mmHg 33%
    19:00 +35°C° 0 mm 6 mps 725 mmHg 34%
    20:00 +35°C° 0 mm 6 mps 725 mmHg 36%
    21:00 +34°C° 0 mm 7 mps 726 mmHg 35%
    22:00 +34°C° 0 mm 7 mps 726 mmHg 34%
    23:00 +34°C° 0 mm 8 mps 726 mmHg 34%

    25 June, Monday

    Time Temperature Precipitation Wind Pressure Humidity
    00:00 +33°C° 0 mm 8 mps 725 mmHg 35%
    01:00 +32°C° 0 mm 8 mps 725 mmHg 36%
    02:00 +31°C° 0 mm 8 mps 725 mmHg 38%
    03:00 +31°C° 0 mm 8 mps 725 mmHg 42%
    04:00 +29°C° 0 mm 8 mps 726 mmHg 47%
    05:00 +28°C° 0 mm 8 mps 726 mmHg 51%
    06:00 +29°C° 0 mm 8 mps 727 mmHg 49%
    07:00 +29°C° 0 mm 8 mps 727 mmHg 46%
    08:00 +31°C° 0 mm 8 mps 728 mmHg 43%
    09:00 +32°C° 0 mm 8 mps 728 mmHg 39%
    10:00 +34°C° 0 mm 7 mps 727 mmHg 35%
    11:00 +35°C° 0 mm 7 mps 727 mmHg 31%
    12:00 +36°C° 0 mm 6 mps 726 mmHg 30%
    13:00 +38°C° 0 mm 6 mps 725 mmHg 29%
    14:00 +37°C° 0 mm 5 mps 724 mmHg 27%
    15:00 +37°C° 0 mm 5 mps 724 mmHg 27%
    16:00 +37°C° 0 mm 5 mps 724 mmHg 27%
    17:00 +38°C° 0 mm 6 mps 724 mmHg 27%
    18:00 +36°C° 0 mm 6 mps 724 mmHg 29%
    19:00 +36°C° 0 mm 6 mps 725 mmHg 30%
    20:00 +35°C° 0 mm 7 mps 726 mmHg 32%
    21:00 +35°C° 0 mm 7 mps 726 mmHg 33%
    22:00 +34°C° 0 mm 7 mps 726 mmHg 35%
    23:00 +33°C° 0 mm 8 mps 726 mmHg 37%

    26 June, Tuesday

    Time Temperature Precipitation Wind Pressure Humidity
    00:00 +32°C° 0 mm 8 mps 725 mmHg 41%
    01:00 +32°C° 0 mm 9 mps 725 mmHg 46%
    02:00 +31°C° 0 mm 9 mps 725 mmHg 51%
    03:00 +29°C° 0 mm 9 mps 725 mmHg 53%
    04:00 +29°C° 0 mm 9 mps 726 mmHg 55%
    05:00 +28°C° 0 mm 9 mps 726 mmHg 57%
    06:00 +29°C° 0 mm 9 mps 727 mmHg 55%
    07:00 +29°C° 0 mm 9 mps 727 mmHg 53%
    08:00 +31°C° 0 mm 9 mps 728 mmHg 51%
    09:00 +32°C° 0 mm 9 mps 728 mmHg 46%
    10:00 +33°C° 0 mm 8 mps 727 mmHg 41%
    11:00 +35°C° 0 mm 8 mps 727 mmHg 36%
    12:00 +37°C° 0 mm 8 mps 726 mmHg 34%
    13:00 +36°C° 0 mm 7 mps 725 mmHg 32%
    14:00 +38°C° 0 mm 7 mps 724 mmHg 29%
    15:00 +38°C° 0 mm 7 mps 724 mmHg 30%
    16:00 +36°C° 0 mm 7 mps 724 mmHg 30%
    17:00 +36°C° 0 mm 7 mps 724 mmHg 31%
    18:00 +37°C° 0 mm 8 mps 724 mmHg 33%
    19:00 +35°C° 0 mm 8 mps 725 mmHg 35%
    20:00 +34°C° 0 mm 8 mps 725 mmHg 36%
    21:00 +34°C° 0 mm 8 mps 725 mmHg 37%
    22:00 +33°C° 0 mm 9 mps 726 mmHg 38%
    23:00 +33°C° 0 mm 9 mps 726 mmHg 40%
    Show more